Tracking 17560 objects as of 11-February-2016
HD Live streaming from Space Station
objects crossing your sky now

INSAT 1C

Track INSAT 1C now!
INSAT 1C is classified as:


NORAD ID: 19330
Int'l Code: 1988-063A
Perigee: 35,788.8 km
Apogee: 35,812.9 km
Inclination: 15.0 °
Period: 1,436.5 minutes
Semi major axis: 42171 km
RCS: 1.9952 m2 (large)
Launch date: July 21, 1988
Source: India (IND)
Launch site: FRENCH GUIANA (FRGUI)
Your satellite tracking list
Your tracking list is empty





NASA's NSSDC Master Catalog

Two Line Element Set (TLE):
1 19330U 88063A   16039.93421346  .00000025  00000-0  00000+0 0  9998
2 19330  14.9917   1.4588 0002864  51.2614 121.9710  1.00246407 8229
Source of the keplerian elements: AFSPC

N2YO: 349